Regional Weather Roundup
Issued by NWS

Home | Current Version | Previous Version | Text Only | Print | Product List | Glossary Off
Versions: 1 2 3 4 5 6 7 8 9 10 11 12 13 14 15 16 17 18 19 20 21 22 23 24 25 26 27 28 29 30 31 32 33 34 35 36 37 38 39 40 41 42 43 44 45 46 47 48 49 50

000
ASUS43 KMPX 231210
RWRMN
WEATHER ROUNDUP FOR MINNESOTA
NATIONAL WEATHER SERVICE TWIN CITIES/CHANHASSEN MN
700 AM CDT WED JUL 23 2014


NOTE: "FAIR" INDICATES FEW OR NO CLOUDS BELOW 12,000 FEET WITH NO
SIGNIFICANT WEATHER AND/OR OBSTRUCTIONS TO VISIBILITY. N/A MEANS
CURRENT SKY AND/OR WEATHER CONDITIONS ARE NOT AVAILABLE.

MNZ060>063-068>070-231300-
   Twin Cities Metro

CITY           SKY/WX    TMP DP  RH WIND       PRES   REMARKS
TWIN CITIES    MOSUNNY   65  57  75 NW7       30.25R
6HR MIN TEMP:  61; 6HR MAX TEMP:  70;

ST PAUL          N/A     62  58  86 VRB7      30.25R
CRYSTAL        SUNNY     63  55  75 NW3       30.25R
BLAINE         SUNNY     61  57  88 CALM      30.25S
LAKEVILLE      SUNNY     61  57  88 NW3       30.25R
EDEN PRAIRIE   SUNNY     63  57  81 N7        30.24R
6HR MIN TEMP:  61; 6HR MAX TEMP:  68;

SOUTH ST PAUL  SUNNY     64  57  80 N3        30.24R
LAKE ELMO      FAIR      59  57  94 CALM      30.26R
$$
MNZ001>005-007-008-013>017-022>024-027-028-231300-
   Northwest Minnesota

CITY           SKY/WX    TMP DP  RH WIND       PRES   REMARKS
BEMIDJI        SUNNY     56  54  94 NW3       30.29R
HALLOCK        MOCLDY    57  55  94 N5        30.30R
ROSEAU         SUNNY     54  48  82 CALM      30.29R HAZE
WARROAD        SUNNY     54  50  87 NW5       30.28S
THIEF RVR FALL MOCLDY    59  55  88 N3        30.30R
CROOKSTON      CLOUDY    59  55  88 CALM      30.30R
FOSSTON        MOCLDY    54  52  94 CALM      30.30R
DETROIT LAKES  PTCLDY    59  55  88 CALM      30.30R
MOORHEAD       PTCLDY    61  61 100 CALM      30.29S
PARK RAPIDS    MOSUNNY   55  54  96 CALM      30.29R
$$
MNZ006-009>011-018-025>026-231300-
   North Central Minnesota

CITY           SKY/WX    TMP DP  RH WIND       PRES   REMARKS
BAUDETTE       SUNNY     56  55  97 CALM      30.29R
FLAG ISLAND    MOSUNNY   63  57  82 N8        30.27S
INTL FALLS     PTSUNNY   61  54  77 NE5       30.27S
6HR MIN TEMP:  53; 6HR MAX TEMP:  62;

WASKISH        PTSUNNY   55  54  94 CALM      30.28R
BIG FORK       MOSUNNY   55  54  94 CALM      30.28S
LONGVILLE      SUNNY     55  55 100 CALM      30.28R
GRAND RAPIDS   MOSUNNY   55  54  94 N5        30.27R
CRANE LAKE     SUNNY     48  48 100 CALM      30.28F
ORR            PTSUNNY   55  52  88 CALM      30.25S
COOK           SUNNY     52  52 100 CALM      30.27S
$$
MNZ012-019>021-037-231300-
   Northeast Minnesota

CITY           SKY/WX    TMP DP  RH WIND       PRES   REMARKS
DULUTH         MOSUNNY   60  54  80 N7        30.25R
6HR MIN TEMP:  56; 6HR MAX TEMP:  60;

ELY            SUNNY     54  52  94 CALM      30.26S
HIBBING        MOSUNNY   59  55  87 CALM      30.27R
DULUTH HARBOR  SUNNY     59  55  88 CALM      30.24S
TWO HARBORS    MOSUNNY   61  54  77 CALM      30.22S
SILVER BAY     SUNNY     55  55 100 CALM      30.23R
GRAND MARAIS     N/A     63  54  72 N8        30.22R
G MARAIS ARPRT MOSUNNY   55  50  82 NW3       30.26R
$$
MNZ029>031-032-039>041-046>048-054>057-064-231300-
   West Central Minnesota

CITY           SKY/WX    TMP DP  RH WIND       PRES   REMARKS
FERGUS FALLS   CLEAR     61  54  77 CALM      30.29R
WHEATON        PTCLDY    55  54  94 CALM      30.31R
MORRIS         CLEAR     55  54  94 NW3       30.29S FOG
ALEXANDRIA     CLEAR     63  57  81 NE7       30.30S
ELBOW LAKE     FAIR      60  57  89 N3        30.30R
WADENA         CLEAR     55  54  94 CALM      30.30R
GLENWOOD       CLEAR     61  55  82 N7        30.30R
APPLETON       CLEAR     57  54  88 CALM      30.28S
BENSON         CLEAR     55  55 100 CALM      30.30R
ORTONVILLE     PTCLDY    61  55  82 CALM      30.30R
MADISON        CLEAR     57  55  94 W3        30.30R
WILLMAR        FAIR      61  54  77 N5        30.30R
$$
MNZ033>034-036-042>043-049>051-058-059-231300-
   Central Minnesota

CITY           SKY/WX    TMP DP  RH WIND       PRES   REMARKS
ST CLOUD       SUNNY     60  55  83 NW6       30.27R
6HR MIN TEMP:  56; 6HR MAX TEMP:  63;

SAUK CENTRE    FAIR      57  54  90 N3        30.30R
PAYNESVILLE    CLEAR     53  52  95 CALM      30.28F
AITKIN         SUNNY     57  52  82 CALM      30.26R
PINE RIVER     SUNNY     55  55 100 CALM      30.31R
BRAINERD       SUNNY     56  55  97 CALM      30.29R
STAPLES        SUNNY     55  54  94 CALM      30.29S
LONG PRAIRIE   FAIR      55  52  88 CALM      30.31R
LITTLE FALLS   SUNNY     54  52  94 CALM      30.29R
LITCHFIELD     CLEAR     61  57  88 NW3       30.28S
BUFFALO        SUNNY     63  55  75 NW5       30.27R
MAPLE LAKE     SUNNY     60  57  91 NW3       30.28R
$$
MNZ037-044-045-052-053-231300-
   East Central Minnesota

CITY           SKY/WX    TMP DP  RH WIND       PRES   REMARKS
PRINCETON      SUNNY     59  55  88 CALM      30.26S
MORA           SUNNY     59  52  77 CALM      30.27S
CAMBRIDGE      SUNNY     59  52  77 CALM      30.24R
RUSH CITY      SUNNY     56  54  92 CALM      30.25R
MOOSE LAKE     SUNNY     55  52  88 CALM      30.24R
HINCKLEY       FAIR      59  55  88 CALM      30.25R
CLOQUET        SUNNY     55  52  88 CALM      30.25R
MCGREGOR       SUNNY     55  54  94 NW5       30.27R
$$
MNZ071>073-080-081-089-090-097-098-231300-
   Southwest Minnesota

CITY           SKY/WX    TMP DP  RH WIND       PRES   REMARKS
MONTEVIDEO     CLEAR     61  55  82 N5        30.30R
GRANITE FALLS  CLEAR     56  55  96 NW3       30.30R
CANBY          CLEAR     58  56  94 NW3       30.31R
MARSHALL       CLEAR     57  54  88 NW7       30.28S
REDWOOD FALLS  CLEAR     62  55  77 N7        30.26S
OLIVIA         CLEAR     57  54  88 N3        30.26S
PIPESTONE      CLEAR     59  54  82 NE5       30.30R
WINDOM         CLEAR     57  54  88 N5        30.28R
WORTHINGTON    CLEAR     57  54  88 N8        30.29R
JACKSON        CLEAR     57  54  88 CALM      30.27R
TRACY          CLEAR     59  56  91 NW7       30.30R
SLAYTON        CLEAR     58  55  91 CALM      30.30R
$$
MNZ065>067-074>077-082>085-091>093-231300-
   South Central Minnesota

CITY           SKY/WX    TMP DP  RH WIND       PRES   REMARKS
MANKATO        SUNNY     59  52  77 NE5       30.25R
NEW ULM        CLEAR     63  57  82 N8        30.26R
ST JAMES       CLEAR     59  54  82 CALM      30.26S
FAIRMONT       CLEAR     57  52  82 N6        30.24S
GLENCOE        MOSUNNY   61  55  79 NW3       30.27R
FARIBAULT      SUNNY     63  55  77 CALM      30.25R
OWATONNA       SUNNY     57  55  94 CALM      30.25R
WASECA         PTSUNNY   57  54  88 CALM      30.26R
ALBERT LEA     MOSUNNY   61  57  88 CALM      30.24R
$$
MNZ078>079-086>088-094>096-231300-
   Southeast Minnesota

CITY           SKY/WX    TMP DP  RH WIND       PRES   REMARKS
ROCHESTER      SUNNY     61  57  87 NW5       30.25R
6HR MIN TEMP:  59; 6HR MAX TEMP:  65;

RED WING       SUNNY     61  57  88 CALM      30.22R
STANTON        SUNNY     58  55  91 CALM      30.23R
DODGE CENTER   SUNNY     61  57  88 N5        30.24R
WINONA         SUNNY     61  61 100 NW6       30.22R
AUSTIN         MOSUNNY   61  57  88 CALM      30.23R
PRESTON        SUNNY     60  60 100 N3        30.23R
$$
ABBREVIATIONS USED IN REMARKS
   TC - TEMPERATURES IN CELSIUS
  WCI - WIND CHILL INDEX
   HX - HEAT INDEX
  VSB - VISIBILITY
$$


USA.gov is the U.S. government's official web portal to all federal, state and local government web resources and services.